Simultaneous Nadir Overpasses (SNOs) Predictions

Prediction of SNOs between GOES-16 and NPP Satellite Orbit:

Table of predicted SNOs for the next 14.0 days since TLE Epoch: 5/14/2022
Index Date Time (GOES-16) GOES-16 Lat,Lon NPP Lat,Lon Distance(km) Time Diff (sec)
1 05/14/2022 18:41:37 0.02, -75.21 -0.73, -78.65 391.24 80
2 05/15/2022 18:20:12 0.02, -75.22 0.28, -74.12 126.01 80
3 05/17/2022 06:44:38 -0.02, -75.22 0.89, -79.38 473.35 80
4 05/18/2022 06:23:12 -0.02, -75.22 -0.12, -74.84 43.80 80
5 05/20/2022 18:29:01 0.02, -75.24 -0.09, -75.60 41.28 80
6 05/21/2022 18:10:16 0.02, -75.25 0.93, -71.06 476.66 80
7 05/23/2022 06:32:02 -0.01, -75.27 0.24, -76.33 121.27 80
8 05/24/2022 06:10:37 -0.01, -75.28 -0.78, -71.79 397.07 80
9 05/25/2022 18:32:32 0.01, -75.31 -0.37, -77.10 203.59 80
10 05/26/2022 18:16:26 0.01, -75.33 0.65, -72.57 315.42 80
